Flag for Venezuela Weather past 2 weeks in Maracay, Venezuela

Now
73 °F

Passing clouds.


Feels Like: 70 °F
Forecast: 64 / 88 °F
Wind: 2 mph from Southeast

Location: Maracay-B. A. Sucre

Current Time: Mar 6, 2015 at 2:16:38 AM

Latest Report: Mar 6, 2015 at 1:30 AM


Visibility: N/A

Pressure: 30.01 "Hg

Humidity: 94%

Dew point: 72 °F

Location of MaracayLocation

Historic Weather in Maracay — Graph

°F

Maracay temperature yesterday

Maximum temperature yesterday: 91 °F (at 2:30 PM)
Minimum temperature yesterday: 70 °F (at 5:30 AM)
Average temperature yesterday: 81 °F

Past Weeks' High & Low Weather Summary

 TemperatureHumidityPressure
High93 °F (Feb 19, 2:30 PM)100% (Feb 21, 6:30 AM)30.09 "Hg (Feb 21, 6:30 AM)
Low66 °F (Mar 3, 7:30 AM)44% (Feb 20, 2:30 PM)29.86 "Hg (Feb 19, 3:30 PM)
Average81 °F70%29.98 "Hg
* Reported Feb 19 4:30 AM — Mar 5 10:30 PM, Maracay, Weather by CustomWeather, © 2015

Note: Actual official high and low records may vary slightly from our data, if they occured in-between our weather recording intervals... More about our weather records

Advertising

Maracay weather history for previous 24 hours

 ConditionsComfort  
Time TempWeatherWind HumidityBarometerVisibility
10:30 PM
Thu, Mar 5
77 °FPassing clouds.3 mph79%30.04 "HgN/A
9:30 PM77 °FPassing clouds.6 mph83%30.01 "HgN/A
8:30 PM77 °FPassing clouds.2 mph89%29.98 "HgN/A
7:30 PM79 °FPassing clouds.3 mph84%29.95 "HgN/A
5:30 PM84 °FScattered clouds.9 mph62%29.92 "HgN/A
3:30 PM90 °FScattered clouds.14 mph55%29.92 "HgN/A
2:30 PM91 °FScattered clouds.10 mph56%29.95 "HgN/A
1:30 PM90 °FScattered clouds.9 mph59%29.98 "HgN/A
12:30 PM90 °FScattered clouds.14 mph55%30.01 "HgN/A
11:30 AM90 °FScattered clouds.15 mph59%30.01 "HgN/A
9:30 AM82 °FPassing clouds.5 mph74%30.04 "HgN/A
8:30 AM81 °FPassing clouds.No wind74%30.04 "HgN/A
7:30 AM73 °FPassing clouds.No wind94%30.01 "HgN/A
6:30 AM72 °FScattered clouds.2 mph94%29.98 "HgN/A
5:30 AM70 °FPassing clouds.No wind100%29.98 "HgN/A
4:30 AM72 °FClear.3 mph100%29.98 "Hg10 mi
Weather by CustomWeather, © 2015

See weather overviewHow to use our weather pages